KD4KKF Weather Reports


time (UTC)temp
F
wind
direction
speed
knots
gust
knots
rain 1hr
in
rain 24hr
in
rain mn
in
humidity
%
barometer
mb
20260510164319 70 191 0.0 0.9 0.00 0.00 0.00 90 1017.5
20260510163818 70 105 0.9 0.9 0.00 0.00 0.00 92 1017.2
20260510163315 70 236 1.7 2.6 0.00 0.00 0.00 91 1017.3
20260510162814 70 214 1.7 2.6 0.00 0.00 0.00 92 1017.5
20260510162311 71 196 1.7 2.6 0.00 0.00 0.00 89 1017.5
20260510161807 70 144 1.7 2.6 0.00 0.00 0.00 91 1017.5
20260510161303 70 193 0.9 0.9 0.00 0.00 0.00 93 1017.4
20260510160800 70 152 0.0 0.0 0.00 0.00 0.00 93 1017.5
20260510160257 68 205 0.0 0.9 0.00 0.00 0.00 96 1017.3
20260510155751 68 183 0.0 0.0 0.00 0.00 0.00 99 1017.5
20260510155248 67 90 0.9 0.9 0.00 0.00 0.00 99 1017.5
20260510154743 67 117 1.7 1.7 0.00 0.00 0.00 99 1017.5
20260510154240 66 74 1.7 2.6 0.00 0.00 0.00 99 1017.6
20260510153735 66 129 0.9 0.9 0.00 0.00 0.00 99 1017.5
20260510153231 66 173 1.7 1.7 0.00 0.00 0.00 99 1017.3
20260510152728 65 157 0.0 0.9 0.00 0.00 0.00 99 1017.4
20260510152224 66 142 0.0 0.0 0.00 0.00 0.00 99 1017.4
20260510151720 65 185 0.0 0.9 0.00 0.00 0.00 99 1017.4
20260510151220 65 197 0.9 0.9 0.00 0.00 0.00 99 1017.2
20260510150715 65 139 0.9 0.9 0.00 0.00 0.00 99 1017.4
20260510150210 65 141 0.9 1.7 0.00 0.00 0.00 99 1017.1
20260510145707 65 120 0.9 1.7 0.00 0.00 0.00 99 1017.1
20260510145203 65 137 0.9 0.9 0.00 0.00 0.00 99 1016.9
20260510144659 64 286 0.9 0.9 0.00 0.00 0.00 99 1017.1
20260510144156 65 163 1.7 1.7 0.00 0.00 0.00 99 1017.1
20260510143651 64 144 0.0 0.0 0.00 0.00 0.00 99 1017.1
20260510143148 65 216 0.9 0.9 0.00 0.00 0.00 99 1016.9
20260510142644 64 152 0.0 0.9 0.00 0.00 0.00 99 1017.1
20260510142141 64 115 0.9 0.9 0.00 0.00 0.00 99 1017.2
20260510141637 64 146 0.0 0.0 0.00 0.00 0.00 99 1017.3
20260510141136 64 177 0.0 0.0 0.00 0.00 0.00 99 1017.2
20260510140632 64 105 0.0 0.0 0.00 0.00 0.00 99 1017.1
20260510140132 64 138 0.0 0.0 0.00 0.00 0.00 99 1016.9
20260510135627 64 107 0.0 0.0 0.00 0.00 0.00 99 1016.9
20260510135123 64 109 0.0 0.0 0.00 0.00 0.00 99 1017.2
20260510134620 63 161 0.0 0.0 0.00 0.00 0.00 99 1017.1
20260510134117 63 76 0.0 0.0 0.00 0.00 0.00 99 1017.0
20260510133614 64 85 0.0 0.0 0.00 0.00 0.00 99 1017.1
20260510133109 63 176 0.0 0.0 0.00 0.00 0.00 99 1017.0
20260510132606 64 147 0.0 0.0 0.00 0.00 0.00 99 1017.1
20260510132103 63 127 0.0 0.0 0.00 0.00 0.00 99 1017.1
20260510131601 63 141 0.0 0.0 0.00 0.00 0.00 99 1017.0
20260510131058 64 139 0.0 0.0 0.00 0.00 0.00 99 1016.9
20260510130554 63 118 0.0 0.0 0.00 0.00 0.00 99 1016.9
20260510130052 63 153 0.0 0.0 0.00 0.00 0.00 99 1016.9
20260510125548 63 139 0.0 0.0 0.00 0.00 0.00 99 1016.7
20260510125044 63 230 0.0 0.0 0.00 0.00 0.00 99 1016.7
20260510124541 63 173 0.0 0.0 0.00 0.00 0.00 99 1016.8
20260510124038 63 157 0.0 0.0 0.00 0.00 0.00 99 1016.8
20260510123533 63 145 0.0 0.0 0.00 0.00 0.00 99 1016.4
20260510123030 62 179 0.0 0.0 0.00 0.00 0.00 99 1016.2
20260510122525 63 201 0.0 0.0 0.00 0.00 0.00 99 1016.5
20260510122022 62 113 0.0 0.0 0.00 0.00 0.00 99 1016.2
20260510121519 63 136 0.0 0.0 0.00 0.00 0.00 99 1016.2
20260510121016 63 148 0.0 0.0 0.00 0.00 0.00 99 1016.2
20260510120514 62 135 0.0 0.0 0.00 0.00 0.00 99 1016.0
20260510120009 62 57 0.0 0.0 0.00 0.00 0.00 99 1015.7
20260510115506 62 164 0.0 0.0 0.00 0.00 0.00 99 1015.5
20260510115003 62 194 0.0 0.0 0.00 0.00 0.00 99 1015.7
20260510114459 62 153 0.0 0.0 0.00 0.00 0.00 99 1015.5
20260510113955 62 128 0.0 0.0 0.00 0.00 0.00 99 1015.6
20260510113450 62 129 0.0 0.0 0.00 0.00 0.00 99 1015.6
20260510112948 62 150 0.0 0.0 0.00 0.00 0.00 99 1015.6
20260510112445 62 119 0.0 0.0 0.00 0.00 0.00 99 1015.2
20260510111941 62 143 0.0 0.0 0.00 0.00 0.00 99 1015.2
20260510111437 62 96 0.0 0.0 0.00 0.00 0.00 99 1015.0
20260510110933 62 66 0.0 0.0 0.00 0.00 0.00 99 1015.0
20260510110430 62 136 0.0 0.0 0.00 0.00 0.00 99 1014.8
20260510105926 62 101 0.0 0.0 0.00 0.00 0.00 99 1014.8
20260510105421 62 100 0.0 0.0 0.00 0.00 0.00 99 1014.7
20260510104916 62 76 0.0 0.0 0.00 0.00 0.00 99 1014.5
20260510104413 62 104 0.0 0.0 0.00 0.00 0.00 99 1014.5
20260510103909 62 120 0.0 0.0 0.00 0.00 0.00 99 1014.3
20260510103402 62 124 0.0 0.0 0.00 0.00 0.00 99 1014.3
20260510102857 62 97 0.0 0.0 0.00 0.00 0.00 99 1014.3
20260510102353 62 127 0.0 0.0 0.00 0.00 0.00 99 1014.3
20260510101850 62 135 0.0 0.0 0.00 0.00 0.00 99 1014.4
20260510101348 62 128 0.0 0.0 0.00 0.00 0.00 99 1014.4
20260510100845 62 55 0.0 0.0 0.00 0.00 0.00 99 1014.6
20260510100342 62 116 0.0 0.0 0.00 0.00 0.00 99 1014.2
20260510095838 62 81 0.0 0.0 0.00 0.00 0.00 99 1013.9
20260510095333 62 101 0.0 0.0 0.00 0.00 0.00 99 1014.0
20260510094832 62 102 0.0 0.0 0.00 0.00 0.00 99 1014.1
20260510094328 62 76 0.0 0.0 0.00 0.00 0.00 99 1013.8
20260510093825 62 80 0.0 0.0 0.00 0.00 0.00 99 1014.0
20260510093320 62 108 0.0 0.0 0.00 0.00 0.00 99 1013.7
20260510092817 62 110 0.0 0.0 0.00 0.00 0.00 99 1013.9
20260510092313 62 102 0.0 0.0 0.00 0.00 0.00 99 1013.6
20260510091809 62 129 0.0 0.0 0.00 0.00 0.00 99 1013.6
20260510091306 62 105 0.0 0.0 0.00 0.00 0.00 99 1013.9
20260510090803 63 148 0.0 0.0 0.00 0.00 0.00 99 1013.8
20260510090300 63 137 0.0 0.0 0.00 0.00 0.00 99 1013.5
20260510085755 63 117 0.0 0.0 0.00 0.00 0.00 99 1013.7
20260510085249 63 95 0.0 0.0 0.00 0.00 0.00 99 1013.7
20260510084745 63 95 0.0 0.0 0.00 0.00 0.00 99 1013.5
20260510084243 63 93 0.0 0.0 0.00 0.00 0.00 99 1013.7
20260510083739 63 98 0.0 0.0 0.00 0.00 0.00 99 1013.4
20260510083236 63 97 0.0 0.0 0.00 0.00 0.00 99 1013.3
20260510082732 63 100 0.0 0.0 0.00 0.00 0.00 99 1013.4
20260510082229 63 132 0.0 0.0 0.00 0.00 0.00 99 1013.6
20260510081728 63 132 0.0 0.0 0.00 0.00 0.00 99 1013.3
20260510081224 63 107 0.0 0.0 0.00 0.00 0.00 99 1013.3
20260510080719 63 108 0.0 0.0 0.00 0.00 0.00 99 1013.5
20260510080215 62 133 0.0 0.0 0.00 0.00 0.00 99 1013.3
20260510075712 62 144 0.0 0.0 0.00 0.00 0.00 99 1013.2
20260510075210 62 144 0.0 0.0 0.00 0.00 0.00 99 1013.2
20260510074707 62 146 0.0 0.0 0.00 0.00 0.00 99 1012.9
20260510074203 62 148 0.0 0.0 0.00 0.00 0.00 99 1013.0
20260510073700 62 144 0.0 0.0 0.00 0.00 0.00 99 1013.1
20260510073155 62 113 0.0 0.0 0.00 0.00 0.00 99 1012.9
20260510072651 62 140 0.0 0.0 0.00 0.00 0.00 99 1013.1
20260510072148 62 153 0.0 0.0 0.00 0.00 0.00 99 1013.0
20260510071644 62 145 0.0 0.0 0.00 0.00 0.00 99 1013.1
20260510071142 62 139 0.0 0.0 0.00 0.00 0.00 99 1013.0
20260510070639 62 139 0.0 0.0 0.00 0.00 0.00 99 1013.0
20260510070136 62 158 0.0 0.0 0.00 0.00 0.00 99 1013.1
20260510065632 62 155 0.0 0.0 0.00 0.00 0.00 99 1013.1
20260510065128 61 163 0.0 0.0 0.00 0.00 0.00 99 1013.1
20260510064624 62 163 0.0 0.0 0.00 0.00 0.00 99 1013.2
20260510064121 62 163 0.0 0.0 0.00 0.00 0.00 99 1013.2
20260510063618 61 164 0.0 0.0 0.00 0.00 0.00 99 1013.1
20260510063115 61 163 0.0 0.0 0.00 0.00 0.00 99 1013.3
20260510062611 61 164 0.0 0.0 0.00 0.00 0.00 99 1013.1
20260510062107 61 165 0.0 0.0 0.00 0.00 0.00 99 1013.2
20260510061603 61 165 0.0 0.0 0.00 0.00 0.00 99 1013.3
20260510061100 61 158 0.0 0.0 0.00 0.00 0.00 99 1013.5
20260510060556 61 158 0.0 0.0 0.00 0.00 0.00 99 1013.3
20260510060053 60 158 0.0 0.0 0.00 0.00 0.00 99 1013.3
20260510055548 60 158 0.0 0.0 0.00 0.00 0.00 99 1013.3
20260510055047 60 158 0.0 0.0 0.00 0.00 0.00 99 1013.3
20260510054543 60 158 0.0 0.0 0.00 0.00 0.00 99 1013.3
20260510054037 60 158 0.0 0.0 0.00 0.00 0.00 99 1013.3
20260510053532 60 158 0.0 0.0 0.00 0.00 0.00 99 1013.2
20260510053030 60 158 0.0 0.0 0.00 0.00 0.00 99 1013.5
20260510052525 60 158 0.0 0.0 0.00 0.00 0.00 99 1013.5
20260510052022 59 158 0.0 0.0 0.00 0.00 0.00 99 1013.4
20260510051517 60 158 0.0 0.0 0.00 0.00 0.00 99 1013.7
20260510051014 60 158 0.0 0.0 0.00 0.00 0.00 99 1013.5
20260510050511 60 158 0.0 0.0 0.00 0.00 0.00 99 1013.6
20260510050008 60 157 0.0 0.0 0.00 0.00 0.00 99 1013.6
20260510045506 60 157 0.0 0.0 0.00 0.00 0.00 99 1013.4
20260510045001 60 158 0.0 0.0 0.00 0.00 0.00 99 1013.6
20260510044459 60 158 0.0 0.0 0.00 0.00 0.00 99 1013.7
20260510043955 60 158 0.0 0.0 0.00 0.00 0.00 99 1013.5
20260510043451 60 158 0.0 0.0 0.00 0.00 0.00 99 1013.6
20260510042950 60 157 0.0 0.0 0.00 0.00 0.00 99 1013.6
20260510042445 61 157 0.0 0.0 0.00 0.00 0.00 99 1013.7
20260510041941 61 157 0.0 0.0 0.00 0.00 0.00 99 1013.5
20260510041438 61 157 0.0 0.0 0.00 0.00 0.00 99 1013.5
20260510040937 60 157 0.0 0.0 0.00 0.00 0.00 99 1013.5
20260510040433 60 157 0.0 0.0 0.00 0.00 0.00 99 1013.7
20260510035928 60 157 0.0 0.0 0.00 0.00 0.00 99 1013.8
20260510035425 60 157 0.0 0.0 0.00 0.00 0.00 99 1013.8
20260510034924 60 158 0.0 0.0 0.00 0.00 0.00 99 1013.8
20260510034424 60 158 0.0 0.0 0.00 0.00 0.00 99 1013.9
20260510033919 60 158 0.0 0.0 0.00 0.00 0.00 99 1013.7
20260510033416 60 158 0.0 0.0 0.00 0.00 0.00 99 1013.9
20260510032912 60 158 0.0 0.0 0.00 0.00 0.00 99 1013.7
20260510032409 60 158 0.0 0.0 0.00 0.00 0.00 99 1013.9
20260510031905 60 158 0.0 0.0 0.00 0.00 0.00 99 1013.9
20260510031400 61 157 0.0 0.0 0.00 0.00 0.00 99 1013.8
20260510030855 61 158 0.0 0.0 0.00 0.00 0.00 99 1013.7
20260510030352 61 158 0.0 0.0 0.00 0.00 0.00 99 1013.4
20260510025850 61 158 0.0 0.0 0.00 0.00 0.00 99 1013.4
20260510025347 61 157 0.0 0.0 0.00 0.00 0.00 99 1013.2
20260510024844 61 158 0.0 0.0 0.00 0.00 0.00 99 1013.6
20260510024340 61 157 0.0 0.0 0.00 0.00 0.00 99 1013.0
20260510023836 62 157 0.0 0.0 0.00 0.00 0.00 99 1013.2
20260510023333 62 158 0.0 0.0 0.00 0.00 0.00 99 1013.2
20260510022831 62 157 0.0 0.0 0.00 0.00 0.00 99 1013.0
20260510022329 62 157 0.0 0.0 0.00 0.00 0.00 99 1012.8
20260510021828 62 157 0.0 0.0 0.00 0.00 0.00 99 1013.0
20260510021327 62 157 0.0 0.0 0.00 0.00 0.00 99 1013.0
20260510020822 62 158 0.0 0.0 0.00 0.00 0.00 99 1012.7
20260510020317 63 158 0.0 0.0 0.00 0.00 0.00 99 1012.6
20260510015813 63 158 0.0 0.0 0.00 0.00 0.00 99 1012.5
20260510015309 63 158 0.0 0.0 0.00 0.00 0.00 99 1012.5
20260510014804 63 158 0.0 0.0 0.00 0.00 0.00 99 1012.4
20260510014302 64 157 0.0 0.0 0.00 0.00 0.00 99 1012.3
20260510013758 64 158 0.0 0.0 0.00 0.00 0.00 99 1012.2
20260510013254 64 159 0.0 0.0 0.00 0.00 0.00 99 1012.2
20260510012749 64 149 0.0 0.0 0.00 0.00 0.00 99 1012.1
20260510012244 64 174 0.0 0.0 0.00 0.00 0.00 99 1011.8
20260510011744 65 174 0.0 0.0 0.00 0.00 0.00 99 1011.7
20260510011239 65 182 0.0 0.0 0.00 0.00 0.00 99 1011.8
20260510005909 66 174 0.0 0.0 0.00 0.00 0.00 99 1011.3
20260510005406 66 174 0.0 0.0 0.00 0.00 0.00 99 1011.3
20260510004903 66 174 0.0 0.0 0.00 0.00 0.00 99 1011.0
20260510004401 67 174 0.0 0.0 0.00 0.00 0.00 98 1011.2
20260510003858 68 164 0.0 0.0 0.00 0.00 0.00 97 1011.1
20260510003355 68 152 0.0 0.0 0.00 0.00 0.00 96 1011.0
20260510002854 68 152 0.0 0.0 0.00 0.00 0.00 95 1010.8
20260510002351 69 149 0.0 0.0 0.00 0.00 0.00 94 1010.9
20260510001848 69 171 0.0 0.0 0.00 0.00 0.00 94 1010.8
20260510001346 69 152 0.0 0.0 0.00 0.00 0.00 93 1011.0
20260510000842 69 200 0.0 0.0 0.00 0.00 0.00 93 1010.7
20260510000341 69 158 0.0 0.0 0.00 0.00 0.00 93 1010.9
20260509235836 69 149 0.0 0.0 0.00 0.00 0.00 92 1010.9
20260509235332 70 144 0.0 0.0 0.00 0.00 0.00 91 1010.6
20260509234828 70 159 0.0 0.0 0.00 0.00 0.00 91 1010.7
20260509234326 70 180 0.0 0.0 0.00 0.00 0.00 91 1010.7
20260509233824 70 168 0.0 0.0 0.00 0.00 0.00 91 1010.8
20260509233321 70 217 0.0 0.0 0.00 0.00 0.00 90 1010.7
20260509232816 71 170 0.0 0.0 0.00 0.00 0.00 91 1010.5
20260509232314 71 135 0.0 0.0 0.00 0.00 0.00 91 1010.5
20260509231810 71 167 0.0 0.0 0.00 0.00 0.00 92 1010.5
20260509231307 71 167 0.0 0.0 0.00 0.00 0.00 92 1010.5
20260509230805 71 167 0.0 0.0 0.00 0.00 0.00 92 1010.5
20260509230302 71 167 0.0 0.0 0.00 0.00 0.00 91 1010.5
20260509225757 72 166 0.0 0.0 0.00 0.00 0.00 91 1010.5
20260509225253 72 167 0.0 0.0 0.00 0.00 0.00 90 1010.4
20260509224749 72 167 0.0 0.0 0.00 0.00 0.00 91 1010.5
20260509224247 72 167 0.0 0.0 0.00 0.00 0.00 89 1010.6
20260509223743 73 162 0.0 0.0 0.00 0.00 0.00 89 1010.3
20260509223240 73 160 0.0 0.0 0.00 0.00 0.00 88 1010.3
20260509222737 73 160 0.0 0.0 0.00 0.00 0.00 87 1010.5
20260509222232 73 137 0.0 0.0 0.00 0.00 0.00 83 1010.6
20260509221728 73 158 0.0 0.0 0.00 0.00 0.00 86 1010.4
20260509221224 74 178 0.0 0.0 0.00 0.00 0.00 83 1010.3
20260509220720 74 104 0.0 0.0 0.00 0.00 0.00 83 1010.0
20260509220217 73 81 0.0 0.0 0.00 0.00 0.00 84 1010.4
20260509215713 73 181 0.0 0.0 0.00 0.00 0.00 85 1010.1
20260509215210 74 169 0.0 0.0 0.00 0.00 0.00 82 1010.0
20260509214707 74 114 0.0 0.0 0.00 0.00 0.00 81 1009.9
20260509214204 73 277 0.0 0.9 0.00 0.00 0.00 82 1009.9
20260509213700 74 324 0.9 0.9 0.00 0.00 0.00 80 1009.8
20260509213156 75 240 0.9 0.9 0.00 0.00 0.00 80 1009.7
20260509212654 75 140 0.0 0.0 0.00 0.00 0.00 79 1009.7
20260509212151 75 148 0.9 0.9 0.00 0.00 0.00 78 1009.9
20260509211646 75 227 0.0 0.0 0.00 0.00 0.00 80 1009.8
20260509211143 74 134 0.0 0.0 0.00 0.00 0.00 82 1009.8
20260509210640 74 247 0.0 0.0 0.00 0.00 0.00 80 1009.8
20260509210137 74 305 0.0 0.0 0.00 0.00 0.00 81 1009.9
20260509205632 74 23 0.0 0.0 0.00 0.00 0.00 79 1009.8
20260509205127 74 276 0.0 0.0 0.00 0.00 0.00 79 1009.9
20260509204623 74 213 0.0 0.0 0.00 0.00 0.00 82 1010.1
20260509204120 74 198 0.0 0.0 0.00 0.00 0.00 80 1010.2
20260509203616 74 138 0.0 0.0 0.00 0.00 0.00 82 1010.1
20260509203115 74 249 1.7 1.7 0.00 0.00 0.00 83 1010.2
20260509202614 74 169 1.7 1.7 0.00 0.00 0.00 81 1010.6
20260509202110 74 203 0.0 0.0 0.00 0.00 0.00 80 1010.3
20260509201604 73 285 0.9 0.9 0.00 0.00 0.00 82 1010.4
20260509201103 74 271 0.9 0.9 0.00 0.00 0.00 81 1010.2
20260509200602 73 195 0.9 1.7 0.00 0.00 0.00 82 1010.6
20260509200059 73 139 0.0 0.0 0.00 0.00 0.00 82 1010.2
20260509195554 73 328 1.7 1.7 0.00 0.00 0.00 82 1010.5
20260509195049 72 212 0.9 0.9 0.00 0.00 0.00 82 1010.9
20260509194544 73 175 1.7 1.7 0.00 0.00 0.00 83 1010.7
20260509194042 73 270 0.9 0.9 0.00 0.00 0.00 81 1010.7
20260509193537 73 236 0.9 1.7 0.00 0.00 0.00 82 1010.8
20260509193033 73 257 2.6 2.6 0.00 0.00 0.00 82 1010.8
20260509192530 73 125 0.0 0.9 0.00 0.00 0.00 82 1010.9
20260509192025 72 230 1.7 1.7 0.00 0.00 0.00 81 1010.9
20260509191520 73 334 2.6 2.6 0.00 0.00 0.00 81 1011.0
20260509191015 73 127 0.9 0.9 0.00 0.00 0.00 81 1011.0
20260509190513 72 263 0.9 1.7 0.00 0.00 0.00 82 1011.1
20260509190010 72 248 0.9 1.7 0.00 0.00 0.00 81 1011.0
20260509185507 72 261 0.9 1.7 0.00 0.00 0.00 81 1011.3
20260509185003 73 155 0.9 1.7 0.00 0.00 0.00 81 1011.0
20260509184503 73 357 0.9 0.9 0.00 0.00 0.00 80 1011.1
20260509183958 72 115 0.0 0.9 0.00 0.00 0.00 82 1011.1
20260509183452 72 127 0.0 0.0 0.00 0.00 0.00 82 1011.5
20260509182949 71 103 0.9 0.9 0.00 0.00 0.00 83 1011.4
20260509182445 71 276 2.6 4.3 0.00 0.00 0.00 84 1011.5
20260509181943 71 158 0.0 0.0 0.00 0.00 0.00 85 1011.3
20260509181441 70 251 0.0 0.0 0.00 0.00 0.00 85 1011.6
20260509180938 72 228 1.7 1.7 0.00 0.00 0.00 84 1011.7
20260509180433 72 152 0.9 0.9 0.00 0.00 0.00 84 1011.4
20260509175931 71 181 2.6 2.6 0.00 0.00 0.00 84 1011.6
20260509175427 71 159 2.6 2.6 0.00 0.00 0.00 85 1012.1
20260509174923 71 125 1.7 1.7 0.00 0.00 0.00 86 1012.1
20260509174419 71 257 1.7 2.6 0.00 0.00 0.00 85 1011.9
20260509173915 70 78 0.0 0.0 0.00 0.00 0.00 87 1012.1
20260509173415 70 151 0.0 0.0 0.00 0.00 0.00 87 1012.0
20260509172912 70 174 0.9 0.9 0.00 0.00 0.00 88 1012.1
20260509172408 69 227 3.5 4.3 0.00 0.00 0.00 87 1012.2
20260509171904 70 151 2.6 2.6 0.00 0.00 0.00 86 1012.2
20260509171400 69 132 0.0 0.0 0.00 0.00 0.00 87 1012.2
20260509170857 70 24 0.9 0.9 0.00 0.00 0.00 86 1012.0
20260509170353 70 157 2.6 2.6 0.00 0.00 0.00 86 1012.1
20260509165848 69 202 0.9 0.9 0.00 0.00 0.00 88 1012.2
20260509165342 70 108 1.7 1.7 0.00 0.00 0.00 88 1012.2
20260509164838 71 120 0.9 0.9 0.00 0.00 0.00 86 1012.2